Weather History for KCLE - October, 2012

Change the Weather History Date:

Saturday, October 13, 2012

  Actual Average Record
Temperature  
Mean Temperature 49 °F 55 °F  
Max Temperature 64 °F 63 °F 82 °F (1969)
Min Temperature 34 °F 46 °F 29 °F (1875)
Degree Days  
Heating Degree Days 16 11  
Month to date heating degree days 173 116  
Since 1 July heating degree days 312 219  
Cooling Degree Days 0 0  
Month to date cooling degree days 1 10  
Year to date cooling degree days 1087 814  
Moisture  
Dew Point 38 °F    
Average Humidity 65    
Maximum Humidity 82    
Minimum Humidity 48    
Precipitation  
Precipitation 0.20 in 0.10 in 0.88 in (1970)
Month to date precipitation 2.36 1.37  
Year to date precipitation 31.89 30.72  
Snow  
Snow 0.00 in 0.00 in - ()
Month to date snowfall 0.0 0.0  
Since 1 July snowfall 0.0 0.0  
Since 1 September snowfall 0.0 0.0  
Snow Depth 0.00 in    
Sea Level Pressure  
Sea Level Pressure 30.24 in    
Wind  
Wind Speed 11 mph (South)    
Max Wind Speed 20 mph    
Max Gust Speed 25 mph    
Visibility 10 miles    
Events Rain    
T = Trace of Precipitation, MM = Missing Value Source: NWS Daily Summary

Daily Weather History Graph

Daily Weather History Graph

Search for Another Location

Airport or City:

Trip Planner

Search our weather history database for the weather conditions in past years. The results will help you decide how hot, cold, wet, or windy it might be!

Date:

Astronomy

Oct. 13, 2012 Rise Set
Actual Time 7:37 AM EDT 6:48 PM EDT
Civil Twilight 7:09 AM EDT 7:16 PM EDT
Nautical Twilight 6:37 AM EDT 7:48 PM EDT
Astronomical Twilight 6:05 AM EDT 8:20 PM EDT
Moon 5:24 AM EDT (10/13) 5:32 PM EDT (10/13)
Length of Visible Light 12h 06m
Length of Day
11h 11m
Waning Crescent, 5% of the Moon is Illuminated
Oct 13
Waning Crescent
Oct 15
New
Oct 21
First Quarter
Oct 29
Full
Nov 6
Last Quarter

Hourly Weather History & Observations

Time (EDT) Temp. Windchill Dew Point Humidity Pressure Visibility Wind Dir Wind Speed Gust Speed Precip Events Conditions
12:51 AM 37.4 °F - 30.2 °F 75% 30.43 in 10.0 mi Calm Calm - N/A   Clear
2:51 AM 37.4 °F 32.1 °F 28.4 °F 70% 30.39 in 10.0 mi SSE 6.9 mph - N/A   Clear
3:51 AM 36.0 °F 29.6 °F 28.0 °F 73% 30.40 in 10.0 mi SSE 8.1 mph - N/A   Clear
4:51 AM 37.0 °F 31.0 °F 28.0 °F 70% 30.40 in 10.0 mi SE 8.1 mph - N/A   Clear
5:51 AM 35.1 °F 30.1 °F 28.0 °F 76% 30.41 in 10.0 mi South 5.8 mph - N/A   Clear
6:51 AM 35.6 °F 28.6 °F 28.4 °F 75% 30.36 in 10.0 mi SSE 9.2 mph - N/A   Partly Cloudy
7:51 AM 37.0 °F 29.8 °F 28.0 °F 70% 30.38 in 10.0 mi SSE 10.4 mph - N/A   Scattered Clouds
8:51 AM 39.9 °F 32.1 °F 28.9 °F 65% 30.35 in 10.0 mi SSE 13.8 mph - N/A   Mostly Cloudy
9:51 AM 43.0 °F 38.2 °F 30.9 °F 62% 30.36 in 10.0 mi SSE 8.1 mph - N/A   Overcast
10:51 AM 48.9 °F - 33.1 °F 54% 30.33 in 10.0 mi SSE 9.2 mph - N/A   Mostly Cloudy
11:51 AM 53.1 °F - 36.0 °F 52% 30.30 in 10.0 mi SSE 6.9 mph - N/A   Overcast
12:51 PM 57.9 °F - 39.0 °F 49% 30.27 in 10.0 mi SSW 11.5 mph - N/A   Mostly Cloudy
1:51 PM 60.8 °F - 42.8 °F 52% 30.22 in 10.0 mi South 6.9 mph - N/A   Mostly Cloudy
2:51 PM 62.1 °F - 42.1 °F 48% 30.17 in 10.0 mi SSE 15.0 mph - N/A   Mostly Cloudy
3:51 PM 63.0 °F - 44.1 °F 50% 30.13 in 10.0 mi SSE 15.0 mph 18.4 mph N/A   Overcast
4:51 PM 63.0 °F - 44.1 °F 50% 30.10 in 10.0 mi South 13.8 mph 21.9 mph N/A   Overcast
5:51 PM 63.0 °F - 45.0 °F 52% 30.06 in 10.0 mi South 15.0 mph 23.0 mph N/A   Overcast
7:51 PM 57.0 °F - 51.1 °F 81% 30.04 in 9.0 mi South 12.7 mph - 0.06 in Rain Rain
8:51 PM 57.9 °F - 50.0 °F 75% 30.01 in 10.0 mi South 18.4 mph 23.0 mph 0.02 in Rain Light Rain
9:51 PM 60.8 °F - 48.2 °F 63% 30.01 in 10.0 mi South 16.1 mph 23.0 mph N/A   Mostly Cloudy
10:51 PM 62.1 °F - 50.0 °F 65% 30.00 in 10.0 mi SSW 13.8 mph 24.2 mph N/A   Mostly Cloudy
11:51 PM 60.8 °F - 53.6 °F 77% 30.01 in 9.0 mi South 11.5 mph - N/A Rain Light Rain